sat.trackr.live / text

‹ back to catalog

STARLINK-2731

NORAD 48651 · 2021-044P

PAYLOAD ACTIVE UNKNOWN

§ Identity

Operator
Country
US
Launch date
2021-05-26
Launch site
AFETR
Launch vehicle
Mass (kg)
RCS (m²)

Purposes: comms

External: N2YO · Heavens-Above · Gunter

§ Orbital elements

Epoch: 2026-09-15T13:10:13.928448Z

Period
94.01 min
Inclination
53.1597°
Eccentricity
0.0001165
Mean motion
15.31711195 rev/d
Perigee alt
469.9 km
Apogee alt
471.5 km
Semi-major
6,848.8 km
B*
1.1414e-4
RAAN
310.3804°
Arg perigee
83.9448°
Mean anomaly
276.1687°
Rev number
29,291

§ Raw data

STARLINK-27311 48651U 21044P   26258.54877232  .00003179  00000+0  11414-3 0  99992 48651  53.1597 310.3804 0001165  83.9448 276.1687 15.31711195292918

JSON: /api/v1/satellites/48651 · /tle

For live sub-satellite position, see the globe view (requires WebGL).

§ Visibility from observer

Set your observer location to see the next 7 days of passes ≥ 10°. The values pass through the URL so the page stays shareable.

No JS? Fill the form by hand. The geolocation button needs JavaScript.